Regional Weather Roundup
Issued by NWS

Home | Current Version | Previous Version | Text Only | Print | Product List | Glossary On
Versions: 1 2 3 4 5 6 7 8 9 10 11 12 13 14 15 16 17 18 19 20 21 22 23 24 25 26 27 28 29 30 31 32 33 34 35 36 37 38 39 40 41 42 43 44 45 46 47 48 49 50
000
ASUS44 KMEG 261610
RWRTN
TENNESSEE HOURLY STATE WEATHER ROUNDUP
NATIONAL WEATHER SERVICE MEMPHIS TN
1100 AM CDT TUE MAY 26 2015

TNZ002-004-019-021-049-052-054-088>092-261700-
WEST TENNESSEE

CITY           SKY/WX    TMP DP  RH WIND       PRES   REMARKS
MEMPHIS INTL   MOSUNNY   74  62  66 W12       30.07S
NWS MEMPHIS      N/A     72 N/A N/A MISG        N/A
JACKSON        CLOUDY    73  64  73 S12       30.07R
DYERSBURG      PTSUNNY   72  54  53 SW9G16    30.07R
PARIS          PTSUNNY   70  64  83 SW13      30.06S
LEXINGTON      CLOUDY    72  68  88 SW9       30.09R
$$

TNZ008-025-027-028-033-062-065-066-261700-
NORTH MIDDLE TENNESSEE

CITY           SKY/WX    TMP DP  RH WIND       PRES   REMARKS
NASHVILLE      CLOUDY    78  68  71 S17G25    30.09F
CLARKSVILLE    CLOUDY    75  68  78 S12G23    30.05R
SMYRNA         CLOUDY    78  69  73 S12G23    30.11S
COOKEVILLE     MOSUNNY   81  70  69 S14       30.14S
CROSSVILLE     PTSUNNY   74  65  73 S12G21    30.22R
$$

TNZ061-075-076-078-094-096-097-261700-
SOUTH MIDDLE TENNESSEE

CITY           SKY/WX    TMP DP  RH WIND       PRES   REMARKS
FAYETTEVILLE   MOSUNNY  N/A N/A N/A MISG      30.14S
TULLAHOMA      PTSUNNY   77  64  65 S12       30.16S
WINCHESTER     MOSUNNY   81  66  61 S14       30.16R
MCMINNVILLE    MOSUNNY   81  66  61 S14       30.15R
COLUMBIA       PTSUNNY   73  70  88 S10       30.08S
SHELBYVILLE    PTSUNNY   81  70  69 S18       30.13S
$$

TNZ017-018-042-046-047-261700-
NORTHEAST TENNESSEE

CITY           SKY/WX    TMP DP  RH WIND       PRES   REMARKS
TRI CITIES     CLOUDY    79  62  56 S10       30.25S
ELIZABETHTON   SUNNY     79  63  57 SW3       30.26S
$$

TNZ012-013-036-069-073-074-261700-
CENTRAL EAST TENNESSEE

CITY           SKY/WX    TMP DP  RH WIND       PRES   REMARKS
KNOXVILLE      PTSUNNY   80  65  59 S6        30.19S
OAK RIDGE      CLOUDY    80  68  66 VRB5      30.21S
GATLINBURG     MOSUNNY   82  64  54 VRB6      30.19F
MORRISTOWN     SUNNY     81  66  61 S6        30.23S
$$

TNZ083-085-099-261700-
SOUTHEAST TENNESSEE

CITY           SKY/WX    TMP DP  RH WIND       PRES   REMARKS
CHATTANOOGA    PTSUNNY   79  70  74 SE10      30.18F
$$

SKY/WX REPORTED AS FAIR MEANS FEW OR NO CLOUDS BELOW
12 THOUSAND FEET.



USA.gov is the U.S. government's official web portal to all federal, state and local government web resources and services.